Regional Weather Roundup
Issued by NWS Jackson, KY

Home | Current Version | Previous Version | Text Only | Print | Product List | Glossary On
Versions: 1 2 3 4 5 6 7 8 9 10 11 12 13 14 15 16 17 18 19 20 21 22 23 24 25 26 27
000
ASUS43 KJKL 171210
RWRJKL

EAST KENTUCKY HOURLY WEATHER ROUNDUP
NATIONAL WEATHER SERVICE JACKSON KY
700 AM EST SUN DEC 17 2017

NOTE: "FAIR" INDICATES FEW OR NO CLOUDS BELOW 12,000 FEET WITH
NO SIGNIFICANT WEATHER AND/OR OBSTRUCTIONS TO VISIBILITY.

* THESE REPORTS ARE NOT UNDER NWS QUALITY CONTROL AND MAY NOT
  REPORT WEATHER SUCH AS PRECIPITATION AND FOG.

KYZ079-080-083-085-087-088-110-112-115-119-120-171300
...EASTERN KENTUCKY...

CITY           SKY/WX    TMP DP  RH WIND       PRES   REMARKS
JACKSON        PTCLDY    39  26  59 CALM      30.18F
6HR MIN TEMP:  36; 6HR MAX TEMP:  39;

LONDON         CLOUDY    34  28  79 CALM      30.21R
6HR MIN TEMP:  30; 6HR MAX TEMP:  34;

SOMERSET*      CLOUDY    36  30  80 E3        30.20F
MONTICELLO*    CLOUDY    37  31  78 W12       30.21S WCI  29
6HR MIN TEMP:  30; 6HR MAX TEMP:  37;

WILLIAMSBURG*  CLOUDY    36  28  75 SE8       30.20F WCI  29
MIDDLESBORO*   PTCLDY    30  28  94 CALM      30.24R
6HR MIN TEMP:  27; 6HR MAX TEMP:  31;

HARLAN APT*    CLOUDY    32  28  86 CALM      30.23S
PIKE CO APT*     N/A     36  26  66 SE3       30.20F
BIG SANDY APT* MOSUNNY   37  27  66 CALM      30.21F
6HR MIN TEMP:  36; 6HR MAX TEMP:  40;

MOREHEAD APT*  PTSUNNY   37  28  70 S5        30.22R WCI  34
$$

KYZ035-036-041-042-044-050-067-078-099-171300
...CENTRAL KENTUCKY...

CITY           SKY/WX    TMP DP  RH WIND       PRES   REMARKS
MT STERLING*   PTCLDY    37  30  75 SW6       30.21R WCI  33
FLEMING/MASON* CLOUDY    37  29  73 S8        30.21R WCI  31
DANVILLE*      MOCLDY    36  30  80 S6        30.20F WCI  31
LEXINGTON      CLOUDY    40  29  64 S8        30.18F WCI  34
6HR MIN TEMP:  36; 6HR MAX TEMP:  40;

FRANKFORT      CLOUDY    40  28  62 S6        30.17S
6HR MIN TEMP:  37; 6HR MAX TEMP:  40;

LOUISVILLE     CLOUDY    41  31  67 SE6       30.17R
6HR MIN TEMP:  39; 6HR MAX TEMP:  45;

LEBANON*       PTSUNNY   41  28  60 SE8       30.18F
GLASGOW*       CLOUDY    40  31  71 SW3       30.22R
BOWLING GREEN  CLOUDY    42  32  67 W3        30.24R
6HR MIN TEMP:  39; 6HR MAX TEMP:  43;

$$

KYZ091>093-OHZ055-061-077-WVZ005-015-034-035-042-171300
...SOUTHERN OHIO/WEST VIRGINIA...

CITY           SKY/WX    TMP DP  RH WIND       PRES   REMARKS
COVINGTON      CLOUDY    37  30  75 S5        30.16S WCI  33
COLUMBUS       CLOUDY    35  29  78 SE5       30.17S WCI  31
DAYTON         MOCLDY    37  30  75 S12       30.14S WCI  29
WILMINGTON     PTCLDY    34  30  85 S8        30.15S WCI  27
HUNTINGTON     CLOUDY    34  26  72 E5        30.19F WCI  30
CHARLESTON     PTCLDY    28  24  85 CALM      30.23F
PINEVILLE*       N/A     29  26  91 MISG      30.29F
BECKLEY        CLOUDY    32  24  72 CALM      30.21S
BLUEFIELD      CLOUDY    36  19  50 S3        30.21F
LOGAN CO APT*    N/A     36  27  69 CALM      30.20F
$$

VAZ002-007-008-TNZ017-027-036-066-071-171300
...SOUTHWEST VIRGINIA/EAST TENNESSEE...

CITY           SKY/WX    TMP DP  RH WIND       PRES   REMARKS
WISE*          CLOUDY    34  28  80 SE3       30.20F
JONESVILLE*      N/A     28  27  93 CALM      30.26S
ABINGDON*      CLOUDY    32  28  86 E6        30.23F WCI  26
BRISTOL        CLOUDY    28  27  96 CALM      30.25F
MORRISTOWN*    SUNNY     32  28  86 NE5       30.23R WCI  27
SEVIERVILLE*   PTSUNNY   27  25  93 CALM      30.23S
KNOXVILLE      CLOUDY    30  29  96 NE7       30.21S WCI  23
LAFOLLETTE*    CLOUDY    30  28  93 CALM      30.26F
OAK RIDGE      PTCLDY    31  30  96 CALM      30.24R
CROSSVILLE     CLOUDY    35  29  78 CALM      30.18S
NASHVILLE      LGT RAIN  40  34  79 CALM      30.25R
$$

...KEY TO REMARKS...
VSB - VISIBILITY IN MILES
WCI - WIND CHILL INDEX
HX  - HEAT INDEX

$$




USA.gov is the U.S. government's official web portal to all federal, state and local government web resources and services.